Home   Weather   Baton Rouge   Past weeks

Flag for USA Past Weather in Baton Rouge, Louisiana, USA — Yesterday and Last 2 Weeks

Now
77 °F

Sunny.


Feels Like: 79 °F
Forecast: 64 / 87 °F
Wind: 9 mph from Southwest

Location: Baton Rouge Metropolitan - Ryan Field

Current Time: May 25, 2017 at 8:49:02 pm

Latest Report: May 25, 2017 at 7:53 pm


Visibility: 10 mi

Pressure: 29.84 "Hg

Humidity: 60%

Dew Point: 62 °F

Location of Baton RougeLocation

Past Weather in Baton Rouge — Graph

°F

Baton Rouge Temperature Yesterday

Maximum temperature yesterday: 77 °F (at 3:53 pm)
Minimum temperature yesterday: 59 °F (at 11:53 pm)
Average temperature yesterday: 69 °F

High & Low Weather Summary for the Past Weeks

 TemperatureHumidityPressure
High90 °F (May 19, 1:53 pm)100% (May 16, 6:53 am)30.09 "Hg (May 16, 6:53 am)
Low55 °F (May 25, 4:53 am)36% (May 24, 1:53 pm)29.69 "Hg (May 24, 5:53 pm)
Average74 °F79%29.91 "Hg
* Reported May 10 6:53 pm — May 25 6:53 pm, Baton Rouge. Weather by CustomWeather, © 2017

Note: Actual official high and low records may vary slightly from our data, if they occured in-between our weather recording intervals... More about our weather records

Advertising

Baton Rouge Weather History for the Previous 24 Hours

Scroll right to see more
 ConditionsComfort  
Time TempWeatherWind HumidityBarometerVisibility
6:53 pm
Thu, May 25
80 °FSunny.12 mph56%29.83 "Hg10 mi
5:53 pm82 °FPassing clouds.9 mph55%29.83 "Hg10 mi
4:53 pm84 °FScattered clouds.13 mph48%29.83 "Hg10 mi
3:53 pm83 °FSunny.7 mph46%29.83 "Hg10 mi
2:53 pm83 °FSunny.8 mph43%29.85 "Hg10 mi
1:53 pm81 °FSunny.9 mph39%29.87 "Hg10 mi
12:53 pm79 °FSunny.3 mph41%29.89 "Hg10 mi
11:53 am78 °FSunny.8 mph40%29.90 "Hg10 mi
10:53 am75 °FSunny.6 mph45%29.90 "Hg10 mi
9:53 am74 °FSunny.5 mph46%29.89 "Hg10 mi
8:53 am70 °FSunny.No wind59%29.89 "Hg10 mi
7:53 am63 °FSunny.No wind87%29.87 "Hg10 mi
6:53 am57 °FSunny.No wind96%29.85 "Hg10 mi
5:53 am55 °FClear.No wind93%29.83 "Hg10 mi
4:53 am55 °FClear.No wind96%29.82 "Hg10 mi
3:53 am57 °FClear.No wind93%29.80 "Hg10 mi
2:53 am58 °FClear.No wind93%29.79 "Hg10 mi
1:53 am56 °FClear.No wind97%29.79 "Hg10 mi
12:53 am59 °FClear.No wind90%29.78 "Hg10 mi
11:53 pm
Wed, May 24
59 °FClear.No wind90%29.77 "Hg10 mi
10:53 pm62 °FClear.No wind80%29.77 "Hg10 mi
9:53 pm64 °FClear.3 mph70%29.75 "Hg10 mi
8:53 pm67 °FClear.3 mph57%29.72 "Hg10 mi
Weather by CustomWeather, © 2017

See weather overviewHow to use our weather pages